Temperature
21 20 20 20 19 18 19 20 21 21 20 20 20 20 19 19 19 18 19 19 19 18 18 18 19 19 19 19 19 19 19 19 19 19 19 19 18 19 18 18 18 18 18 18 18 18 18 18 18
21 21 20 20 19 19 20 21 21 21 20 21 20 20 19 18 18 19 19 19 19 19 18 18 19 19 19 19 19 19 19 19 19 19 19 19 19 18 18 18 18 18 18 18 18 18 18 18 18
21 21 21 19 19 19 20 21 21 21 21 21 20 20 19 18 19 19 19 19 19 19 19 19 19 19 18 18 19 19 19 19 19 19 19 19 18 18 18 18 18 18 18 18 18 18 18 18 18
21 21 21 19 20 21 21 21 21 21 21 21 20 19 19 19 19 19 19 19 19 19 19 19 19 19 19 18 19 19 19 19 19 18 18 18 18 18 18 18 18 18 18 18 18 18 18 18 18
21 22 19 19 21 22 22 22 22 21 21 20 20 19 19 19 19 19 19 19 19 19 19 19 19 19 18 18 19 19 19 19 18 18 18 18 18 18 18 18 18 18 18 18 18 18 18 18 18
22 20 19 20 21 22 22 22 22 21 21 20 20 19 19 19 19 19 19 19 19 19 19 19 19 19 19 19 19 18 18 18 18 18 18 18 18 18 18 18 18 18 18 18 18 18 18 18 18
22 20 20 21 21 22 23 22 22 21 21 21 20 19 19 19 19 19 19 19 19 19 19 19 19 19 19 19 19 19 19 18 18 18 18 18 18 18 18 18 18 18 18 18 18 18 18 18 17
23 20 21 21 22 22 23 23 22 22 21 21 21 19 19 19 19 19 19 19 19 19 19 19 19 19 19 19 19 19 19 19 19 18 18 18 18 18 18 18 18 18 18 18 17 18 17 17 17
23 20 21 22 22 22 23 23 22 22 21 21 21 21 20 19 19 19 19 19 19 19 19 19 19 19 19 19 19 19 19 19 18 18 18 18 18 18 18 18 18 18 18 18 18 17 17 17 17
23 20 22 23 22 22 23 23 22 22 21 20 20 20 20 20 19 19 19 19 19 19 19 19 19 19 19 19 19 19 19 18 18 18 18 18 18 18 18 18 18 18 18 18 18 17 17 17 17
23 22 23 23 24 24 23 23 23 22 21 21 20 20 20 20 19 19 19 19 19 19 19 19 19 19 19 19 19 18 18 18 18 18 18 18 18 18 18 18 18 18 18 18 18 17 17 17 17
23 23 24 24 24 24 23 23 22 22 22 22 22 21 20 20 20 20 19 19 19 19 19 19 19 19 19 19 18 18 18 18 18 18 18 18 18 18 18 18 18 18 18 18 18 18 17 17 17
24 24 25 25 24 24 24 23 22 22 22 22 21 21 20 20 20 20 20 19 19 19 19 19 19 19 19 18 18 18 18 18 18 18 18 18 18 18 18 18 18 18 18 18 18 17 17 17 17
25 24 24 25 24 24 23 23 22 22 22 21 21 21 21 20 20 20 20 20 20 19 19 19 19 19 19 19 18 18 18 18 18 18 18 18 18 18 18 18 18 18 18 18 17 17 17 17 17
25 24 24 24 24 24 23 23 22 22 22 21 21 21 21 20 20 20 20 20 20 20 19 19 19 19 19 19 19 18 18 18 18 18 18 18 18 18 18 18 18 18 17 17 17 17 17 17 17
24 23 23 24 24 24 23 22 22 22 22 21 21 21 21 21 21 21 20 20 20 20 19 19 19 19 19 19 19 18 18 18 18 18 18 18 18 18 18 18 18 17 17 17 17 17 17 17 17
23 23 23 24 24 24 23 23 22 22 21 21 21 21 21 21 21 21 20 20 20 20 20 19 19 19 19 19 19 18 18 18 18 18 18 18 18 18 18 18 17 17 17 17 17 17 17 17 17
23 23 24 23 24 24 23 22 22 22 22 21 21 21 21 21 21 21 21 20 20 20 20 19 19 19 19 19 18 18 18 18 18 18 18 18 18 18 18 17 17 17 17 17 17 17 17 17 17
24 24 24 24 24 23 23 22 22 22 22 21 21 21 21 21 22 21 21 21 20 20 20 19 19 19 19 19 19 19 18 18 18 18 18 18 18 18 18 17 17 17 17 17 17 17 17 17 17
24 24 24 24 24 24 22 22 22 22 22 22 22 21 22 22 21 21 21 21 21 20 20 20 20 19 19 19 19 19 19 18 18 18 18 18 18 18 18 18 17 17 17 17 17 17 17 17 17
25 24 24 24 24 23 23 23 23 22 22 22 22 22 22 22 22 22 21 21 21 20 20 20 20 20 19 19 19 19 19 18 18 18 18 18 18 18 18 18 18 17 17 17 17 17 17 17 17
24 25 25 24 23 22 23 22 22 22 21 21 22 22 22 22 22 22 22 22 21 21 21 20 20 20 19 19 19 19 19 19 18 18 18 18 18 18 18 18 18 18 17 17 17 17 17 17 17
25 25 24 24 22 21 22 22 22 21 22 21 22 22 23 23 23 23 22 22 22 21 21 21 20 20 20 19 19 19 19 19 19 18 18 18 18 18 18 18 18 18 17 17 17 17 17 17 17
25 23 22 20 20 22 22 22 22 21 22 22 22 23 23 23 23 23 23 22 22 22 21 21 20 20 20 20 19 19 19 19 19 19 18 18 18 18 18 18 18 18 17 17 17 17 17 17 17
24 22 21 22 20 21 21 22 21 22 22 22 23 23 23 23 23 23 23 23 22 22 22 21 21 21 20 20 20 19 19 19 19 19 19 18 18 18 18 18 18 18 17 17 17 17 17 17 17
23 22 22 22 21 21 21 21 22 23 23 24 24 24 24 23 23 23 23 23 23 22 22 22 21 21 21 20 20 20 19 19 19 19 19 19 18 18 18 18 18 18 17 17 17 17 17 17 17
24 22 21 20 21 21 21 21 22 23 22 22 23 23 23 24 24 24 23 23 23 23 22 22 22 21 21 21 20 20 20 19 19 19 19 19 19 18 18 18 18 17 17 17 17 17 17 17 17
23 20 19 20 21 22 22 22 22 23 23 21 21 22 23 23 23 23 23 23 23 23 23 23 22 22 21 21 20 20 20 20 19 19 19 19 19 18 18 18 18 18 17 17 17 17 17 17 17
23 21 18 17 19 20 22 22 23 22 22 21 21 22 23 23 24 23 23 23 23 23 23 22 22 22 21 21 21 20 20 20 19 19 19 19 18 18 18 18 17 17 17 17 17 17 17 17 17
23 21 19 21 20 18 20 21 23 21 21 21 22 22 23 24 24 24 23 23 23 23 22 22 22 22 21 21 21 20 20 20 20 19 19 19 19 18 18 18 17 17 17 17 17 17 17 17 17
Wind_Speed
8 6 2 1 4 5 4 4 2 3 4 4 6 6 6 4 3 3 1 2 2 1 0 3 4 5 6 6 7 8 8 8 8 8 8 8 8 9 8 9 11 12 12 13 13 13 13 13 14
5 4 1 2 5 4 3 3 4 3 4 4 6 6 6 5 3 4 1 2 3 2 1 3 4 5 6 6 7 7 8 8 8 8 8 8 8 8 8 9 10 12 12 12 12 12 12 12 13
5 2 2 4 4 3 2 2 5 5 4 3 4 5 4 3 3 2 2 4 3 2 1 2 4 5 5 6 7 7 7 7 7 7 7 8 8 8 8 10 11 11 11 11 11 11 11 12 14
2 1 3 6 5 1 3 3 5 5 4 5 4 5 4 3 2 3 5 5 4 2 1 1 4 4 5 6 6 6 6 6 6 7 7 7 7 8 9 10 10 10 10 10 10 11 11 12 14
1 3 6 5 4 3 3 3 3 4 3 4 5 5 3 4 5 6 6 4 3 1 1 1 3 4 4 5 6 6 5 5 6 6 7 7 7 8 9 9 10 9 9 9 9 10 10 11 12
3 4 5 3 3 3 2 3 5 6 5 4 4 4 2 2 4 4 4 3 2 1 1 1 2 2 3 4 4 5 4 4 5 6 6 6 7 8 9 9 8 9 9 9 9 9 10 11 11
3 4 3 2 2 2 3 3 4 5 5 3 4 4 1 0 2 4 4 3 2 2 2 2 2 2 2 2 3 3 3 4 4 5 6 6 7 7 8 7 7 8 9 9 9 9 10 10 10
3 4 3 1 2 1 3 3 4 4 4 4 4 5 3 3 4 5 4 3 2 2 2 2 2 2 2 2 2 2 3 4 4 5 5 6 6 6 7 6 6 7 7 9 9 9 10 10 11
3 4 2 3 4 2 4 4 2 4 5 3 3 3 4 8 7 5 4 3 2 1 2 2 2 2 2 1 2 2 3 4 4 4 5 5 4 4 5 6 7 7 7 8 10 10 11 10 10
4 3 4 4 5 5 5 4 5 4 4 3 5 5 8 8 7 5 3 2 1 1 1 1 1 2 1 1 2 2 3 3 4 4 5 4 4 4 4 5 7 7 8 9 10 10 11 9 8
4 4 2 2 4 6 5 3 3 7 3 4 7 9 9 7 6 5 3 3 2 2 1 1 1 1 1 1 2 2 2 3 4 4 4 4 4 4 4 4 5 6 7 7 8 8 8 8 7
3 1 3 3 4 5 6 4 4 3 3 6 9 11 9 8 7 6 5 3 2 1 1 1 1 1 1 1 2 2 2 2 2 3 4 3 3 3 3 3 4 5 5 5 6 6 8 8 8
3 2 3 4 6 6 7 5 4 2 5 8 9 9 8 7 5 4 4 3 2 2 1 0 1 1 1 2 1 2 2 2 2 3 3 4 3 3 3 3 4 4 5 5 5 6 7 7 7
3 5 4 4 5 4 7 4 4 2 7 8 8 7 7 7 6 4 4 3 3 3 2 1 1 2 2 2 1 1 1 1 2 3 3 4 4 4 3 3 4 4 5 6 6 6 6 6 6
6 7 6 3 3 3 6 3 2 5 8 7 7 6 6 5 5 5 5 5 4 3 3 3 2 2 2 2 1 1 1 2 2 2 3 4 5 4 4 4 4 4 6 7 7 7 6 6 6
6 6 2 2 2 3 5 2 3 7 9 7 6 5 5 5 5 5 5 4 4 3 3 2 2 3 2 2 2 2 2 2 2 3 3 4 4 5 4 4 4 5 6 6 5 5 5 5 5
5 2 1 2 1 3 3 3 3 7 8 7 6 6 5 5 4 4 5 5 4 4 4 3 3 3 3 3 3 3 3 2 2 3 3 3 4 5 5 4 4 5 5 4 5 4 4 5 4
4 3 2 3 3 3 3 3 3 6 8 7 6 6 6 6 7 5 5 5 4 4 4 3 3 3 4 3 3 3 3 2 2 2 2 3 4 5 5 4 5 5 4 4 4 5 4 3 4
6 5 3 3 2 3 3 3 4 6 6 7 6 6 7 7 5 4 5 5 4 4 3 3 4 3 3 3 2 2 1 1 1 1 2 3 4 5 5 4 4 4 4 4 4 4 4 2 3
5 3 2 1 1 3 1 3 3 6 8 8 9 8 8 6 4 5 5 5 5 5 4 4 4 4 3 3 2 2 2 1 1 1 2 2 3 4 4 4 3 4 4 4 4 3 3 1 2
3 5 5 3 3 4 3 5 3 3 5 5 6 6 7 9 8 7 6 6 6 6 6 5 5 5 4 4 3 3 3 2 2 1 1 0 2 3 4 4 4 4 4 3 3 4 4 3 1
4 6 5 5 5 1 2 3 6 3 4 6 8 7 8 8 8 7 7 7 7 7 6 5 5 4 4 4 4 4 3 2 1 1 1 0 1 3 4 4 4 4 3 3 4 4 3 3 3
5 3 5 5 5 3 2 1 7 1 5 9 10 10 10 9 9 9 9 9 8 7 6 5 5 4 4 4 5 4 3 2 1 1 1 0 0 1 3 4 4 4 3 3 3 3 3 3 3
6 8 8 6 5 1 3 3 6 4 7 7 7 9 10 9 9 9 7 7 6 6 5 5 5 4 4 4 4 5 5 4 2 2 1 1 0 0 1 3 3 4 3 4 4 3 3 3 3
6 7 4 4 3 5 2 2 8 7 7 8 8 10 10 9 9 8 8 8 8 8 7 6 6 5 5 5 5 5 5 5 4 4 3 2 1 1 2 2 3 3 4 4 4 3 3 4 3
5 9 8 5 5 4 1 5 8 6 4 3 4 5 7 8 8 9 9 9 9 9 8 8 8 7 6 6 5 4 4 4 3 3 3 3 3 3 3 3 3 3 4 4 4 3 3 3 3
6 4 6 7 3 0 5 7 8 3 3 1 2 4 6 7 8 9 9 9 9 9 10 9 9 7 6 6 5 4 4 4 4 3 2 2 3 3 3 3 3 3 3 3 3 3 3 3 3
5 9 6 6 5 2 5 5 5 5 4 2 2 4 5 5 6 7 7 8 8 8 8 8 8 8 6 6 6 5 5 5 4 3 3 3 3 2 2 3 3 3 3 3 3 3 3 3 3
4 5 6 5 5 6 3 7 6 7 6 6 6 5 5 6 6 6 6 6 6 5 6 6 6 6 6 6 5 5 4 4 3 3 3 3 2 2 2 2 2 3 3 3 3 3 3 4 3
4 7 7 6 4 5 5 7 5 4 4 5 4 3 3 4 5 5 5 5 5 6 5 5 5 5 5 5 5 5 4 3 3 4 4 3 3 3 3 2 3 4 4 3 4 4 4 4 4
Wind_Direction
155 146 152 101 54 52 41 14 42 51 48 46 68 78 84 68 84 127 251 134 137 109 72 115 98 96 91 84 85 92 97 101 102 104 109 110 113 120 124 131 138 140 142 144 146 147 149 149 151
152 160 191 57 69 60 22 17 62 68 125 122 73 69 69 61 61 103 106 154 126 120 97 110 103 97 92 87 90 94 100 101 102 103 107 109 112 119 124 132 137 140 143 144 147 148 152 149 147
168 187 64 61 69 113 128 108 111 100 104 84 69 55 65 71 100 137 172 147 116 106 94 123 108 103 97 91 90 96 100 101 106 105 102 107 110 114 120 132 135 137 140 142 146 148 151 149 148
158 45 48 64 59 53 150 142 128 119 69 52 79 61 50 52 126 141 133 129 113 87 47 98 105 103 96 89 86 87 94 100 106 107 102 102 103 109 116 122 128 130 131 137 142 144 145 146 148
76 67 54 47 37 43 86 120 108 95 72 62 77 80 40 10 94 113 120 120 120 95 33 87 98 98 94 90 84 81 80 86 105 109 103 99 100 106 113 117 122 126 128 129 125 134 137 138 143
53 62 69 59 48 64 84 106 92 85 89 89 83 86 46 53 106 125 119 120 124 103 36 60 104 91 86 91 84 80 75 78 99 105 106 103 101 105 111 113 119 123 125 127 125 132 137 134 138
88 82 104 121 95 85 140 115 101 106 104 109 111 94 87 122 136 123 106 100 87 68 40 16 33 60 69 86 87 90 88 82 102 107 104 102 103 107 108 107 115 126 125 123 123 129 130 130 136
125 94 79 94 114 122 138 112 108 110 106 111 110 126 172 189 131 101 83 66 55 50 23 359 4 25 27 29 66 78 81 84 100 111 111 108 108 109 112 106 108 116 121 120 118 119 128 128 130
103 72 126 183 162 162 137 117 107 82 101 90 91 134 149 135 121 102 83 51 26 28 353 350 357 13 18 23 54 58 67 70 79 91 106 98 84 90 102 108 105 109 114 115 115 114 116 120 125
98 121 208 197 167 150 138 129 134 104 97 86 82 89 113 127 134 135 139 161 213 267 298 330 358 5 20 38 47 34 40 41 46 52 63 69 69 77 87 97 104 105 105 108 107 106 107 104 109
138 168 186 145 139 129 127 118 117 125 143 173 156 144 137 141 149 160 173 187 208 230 279 311 332 41 55 42 53 45 42 41 46 55 61 71 64 62 62 67 76 84 91 91 96 97 92 94 99
137 186 146 142 129 126 136 127 112 140 185 157 147 144 145 155 169 181 187 195 177 180 261 328 68 92 75 72 62 62 58 57 58 53 61 79 77 69 65 70 72 75 82 89 92 95 94 92 97
115 104 96 112 105 117 106 107 116 105 115 122 128 137 152 163 176 187 185 181 166 187 228 276 111 119 103 82 63 73 63 67 65 59 59 83 93 88 82 79 78 85 89 91 93 94 95 92 93
121 86 76 88 97 107 113 101 98 145 128 130 142 157 169 174 177 174 172 177 182 190 195 171 132 132 116 107 85 76 82 77 71 71 70 87 104 101 95 87 87 90 96 97 98 100 99 93 92
89 73 44 47 82 110 107 78 186 160 140 146 163 171 178 183 178 185 188 186 186 185 181 177 167 133 126 123 123 97 91 89 85 80 78 89 102 106 102 100 92 93 101 100 98 95 95 96 92
62 63 48 299 93 126 119 210 210 153 149 164 179 183 183 193 195 196 187 185 177 164 161 170 154 131 129 119 112 96 97 94 86 82 82 86 102 108 104 99 96 102 106 104 103 101 100 97 97
43 100 210 273 213 142 151 226 198 158 160 176 190 192 188 196 207 204 190 183 171 164 157 149 133 128 126 117 99 87 90 87 87 85 90 95 104 109 112 104 103 105 104 101 109 101 110 112 107
189 176 206 228 228 146 170 241 186 171 174 189 196 197 197 202 212 197 184 179 167 159 153 147 133 123 114 102 85 73 71 63 78 93 108 111 114 113 113 108 107 110 105 98 105 108 100 110 114
158 157 200 236 203 148 191 233 213 188 188 199 206 206 208 212 204 182 180 173 158 155 153 154 148 144 122 107 108 102 92 70 61 86 114 122 126 122 120 116 110 114 118 125 127 117 111 111 117
140 151 214 304 96 145 180 277 237 201 205 205 208 210 207 204 191 184 180 176 171 171 171 166 168 161 156 147 135 129 121 108 107 72 85 117 130 136 139 128 131 130 128 125 132 134 127 142 147
178 185 202 183 81 63 66 331 269 232 213 211 213 209 202 198 195 191 187 186 178 184 185 185 182 174 172 156 119 98 77 61 57 57 54 88 142 147 149 151 150 149 150 159 165 162 158 174 187
222 212 180 143 108 327 94 284 283 241 234 225 220 210 208 204 195 192 190 189 192 197 188 179 180 175 170 154 148 150 156 168 197 184 176 102 143 155 160 163 162 161 163 169 183 176 175 167 184
198 108 113 118 116 50 22 169 289 276 240 239 224 215 210 202 195 196 196 197 197 192 184 179 172 172 165 160 164 162 170 185 176 141 132 78 68 160 166 169 168 171 177 186 188 177 183 186 187
128 75 61 54 71 1 253 173 282 237 223 237 221 211 206 200 197 198 194 187 189 182 180 172 169 180 174 170 172 172 178 181 174 181 189 220 240 220 188 175 174 180 186 195 199 196 198 199 197
102 96 48 13 15 255 268 201 252 256 234 223 219 209 201 196 193 191 184 185 189 186 184 179 178 191 187 182 184 184 186 184 191 197 201 209 220 228 224 193 186 191 197 196 191 195 207 202 198
158 138 154 185 212 268 309 238 258 276 267 227 202 188 182 187 191 193 194 191 193 192 187 185 188 198 193 192 197 191 186 187 199 201 201 208 219 228 219 200 199 205 200 195 185 195 206 198 203
136 149 151 130 141 299 284 286 303 315 4 75 127 150 181 190 192 193 192 191 191 192 192 190 191 197 199 198 192 191 193 192 196 196 204 218 224 226 215 205 202 208 202 195 186 198 210 198 207
130 139 104 118 143 220 293 283 263 284 275 252 202 197 200 187 189 189 187 191 192 190 188 183 187 194 196 192 194 202 200 198 191 183 216 241 240 233 216 220 210 206 208 204 197 204 206 200 215
106 96 103 111 144 152 220 269 235 229 224 214 220 209 194 186 188 185 185 182 175 173 176 179 181 182 187 189 191 190 192 191 184 197 218 236 244 223 217 220 220 221 224 218 208 219 208 207 224
147 156 146 147 187 161 169 261 282 231 222 204 206 192 180 178 176 171 168 161 160 165 170 177 179 180 185 180 174 178 180 180 190 206 222 224 223 224 225 220 226 232 229 222 212 223 220 215 225
Height
1483 1484 1484 1486 1489 1500 1505 1500 1495 1495 1496 1497 1496 1497 1499 1502 1506 1511 1507 1505 1505 1505 1504 1504 1504 1503 1502 1501 1500 1500 1499 1500 1500 1500 1500 1500 1501 1501 1501 1501 1503 1505 1507 1510 1512 1515 1517 1519 1522
1484 1485 1487 1488 1498 1512 1510 1500 1498 1497 1498 1498 1498 1500 1501 1503 1504 1505 1506 1506 1506 1506 1506 1505 1505 1505 1504 1503 1502 1502 1501 1502 1502 1502 1502 1502 1502 1502 1502 1501 1503 1506 1509 1511 1513 1515 1518 1520 1522
1486 1487 1489 1491 1502 1511 1508 1500 1498 1498 1499 1499 1500 1502 1503 1505 1506 1506 1507 1507 1507 1507 1507 1507 1507 1506 1506 1505 1504 1504 1504 1504 1504 1504 1504 1504 1504 1504 1503 1502 1504 1507 1510 1512 1514 1516 1518 1521 1523
1487 1489 1491 1498 1505 1502 1500 1499 1498 1499 1500 1500 1501 1504 1506 1508 1508 1508 1508 1509 1509 1509 1509 1509 1508 1508 1508 1507 1507 1506 1505 1505 1505 1506 1506 1506 1506 1506 1505 1506 1507 1510 1512 1514 1515 1517 1519 1521 1523
1489 1491 1498 1506 1504 1500 1498 1499 1499 1500 1501 1503 1503 1506 1508 1510 1510 1510 1510 1510 1511 1511 1510 1510 1510 1510 1510 1509 1509 1508 1507 1507 1507 1507 1508 1508 1508 1508 1508 1509 1511 1513 1514 1516 1516 1518 1520 1522 1525
1491 1493 1508 1513 1506 1501 1500 1500 1501 1502 1504 1505 1506 1508 1510 1511 1511 1512 1512 1512 1512 1512 1512 1512 1512 1512 1512 1511 1510 1510 1509 1509 1509 1509 1509 1510 1511 1511 1511 1512 1513 1515 1516 1518 1519 1520 1522 1524 1526
1493 1498 1507 1508 1507 1504 1501 1501 1502 1504 1505 1507 1507 1509 1511 1512 1513 1513 1514 1514 1514 1514 1514 1514 1514 1514 1513 1513 1512 1512 1511 1511 1511 1511 1512 1512 1513 1514 1514 1515 1515 1517 1518 1519 1521 1522 1524 1526 1528
1493 1499 1506 1508 1507 1505 1501 1502 1504 1505 1506 1508 1509 1510 1512 1513 1514 1515 1515 1516 1516 1516 1516 1516 1515 1515 1515 1514 1514 1514 1513 1513 1513 1513 1514 1514 1515 1516 1516 1517 1518 1519 1520 1521 1523 1524 1525 1527 1530
1494 1504 1511 1506 1505 1503 1501 1503 1505 1506 1507 1509 1509 1510 1512 1514 1515 1516 1517 1517 1517 1517 1517 1517 1517 1517 1517 1516 1516 1516 1515 1515 1516 1516 1516 1517 1517 1518 1519 1520 1520 1521 1522 1523 1524 1526 1527 1529 1532
1496 1507 1504 1498 1498 1500 1502 1503 1505 1507 1509 1510 1511 1512 1514 1515 1516 1517 1518 1518 1519 1519 1519 1519 1519 1519 1518 1518 1518 1518 1518 1518 1518 1518 1519 1519 1520 1520 1521 1522 1522 1523 1524 1525 1526 1528 1530 1531 1533
1495 1501 1497 1497 1497 1499 1502 1504 1506 1507 1510 1510 1511 1513 1514 1516 1517 1518 1519 1520 1520 1521 1521 1520 1520 1520 1520 1520 1520 1520 1520 1520 1520 1521 1521 1521 1522 1522 1523 1524 1524 1525 1526 1527 1528 1530 1532 1534 1536
1496 1496 1496 1497 1498 1500 1502 1505 1507 1508 1510 1510 1512 1513 1515 1517 1518 1519 1520 1521 1522 1522 1522 1522 1522 1522 1522 1522 1522 1522 1522 1522 1522 1523 1523 1524 1524 1524 1525 1525 1526 1527 1528 1529 1531 1532 1534 1536 1538
1496 1497 1497 1498 1499 1501 1504 1506 1508 1510 1511 1512 1513 1515 1517 1518 1519 1521 1522 1522 1523 1524 1524 1524 1524 1524 1524 1524 1524 1524 1524 1524 1524 1524 1525 1525 1525 1526 1527 1527 1528 1529 1530 1531 1533 1535 1536 1538 1540
1496 1498 1499 1501 1502 1504 1506 1508 1509 1511 1512 1513 1515 1516 1518 1519 1520 1521 1522 1523 1524 1524 1525 1525 1525 1525 1525 1525 1525 1526 1526 1526 1526 1526 1527 1527 1527 1528 1528 1529 1530 1531 1533 1534 1535 1537 1538 1540 1541
1497 1501 1504 1504 1504 1506 1508 1512 1511 1511 1513 1514 1516 1517 1519 1520 1521 1522 1522 1523 1524 1525 1526 1526 1526 1526 1526 1526 1527 1527 1528 1528 1528 1528 1528 1529 1529 1529 1529 1530 1532 1533 1535 1536 1537 1539 1540 1541 1543
1501 1509 1515 1508 1506 1507 1512 1519 1511 1512 1513 1515 1516 1518 1519 1520 1521 1522 1523 1524 1525 1526 1527 1527 1527 1527 1527 1528 1528 1529 1529 1529 1530 1530 1530 1530 1531 1531 1532 1532 1534 1535 1536 1537 1539 1540 1541 1543 1544
1512 1520 1519 1512 1506 1507 1512 1515 1511 1512 1513 1515 1516 1518 1519 1520 1521 1522 1523 1524 1525 1526 1527 1528 1528 1528 1527 1528 1529 1530 1531 1531 1531 1532 1532 1533 1533 1533 1534 1535 1536 1537 1538 1539 1540 1542 1543 1544 1546
1519 1519 1518 1516 1508 1509 1513 1513 1511 1512 1513 1514 1516 1517 1518 1519 1520 1522 1523 1524 1526 1527 1528 1528 1529 1529 1529 1530 1530 1531 1532 1532 1533 1533 1534 1534 1535 1535 1536 1536 1537 1539 1540 1541 1542 1543 1545 1546 1547
1507 1513 1516 1512 1506 1510 1513 1513 1511 1511 1513 1514 1515 1516 1517 1518 1520 1521 1523 1524 1525 1526 1527 1528 1529 1530 1530 1531 1531 1532 1533 1533 1534 1535 1535 1536 1537 1537 1538 1538 1539 1540 1541 1542 1544 1545 1546 1547 1547
1506 1513 1514 1510 1506 1510 1514 1514 1510 1510 1510 1511 1512 1514 1515 1517 1519 1520 1522 1523 1524 1526 1527 1528 1529 1530 1531 1532 1532 1533 1534 1534 1535 1536 1537 1537 1538 1539 1539 1540 1540 1541 1542 1543 1544 1545 1546 1547 1548
1507 1511 1511 1512 1509 1510 1515 1518 1512 1508 1509 1510 1511 1512 1514 1515 1516 1519 1521 1522 1523 1525 1526 1527 1529 1530 1531 1532 1533 1534 1535 1535 1536 1537 1538 1538 1539 1540 1540 1540 1541 1542 1543 1544 1545 1546 1546 1547 1548
1510 1502 1504 1509 1519 1526 1521 1536 1517 1510 1509 1508 1508 1509 1511 1513 1515 1517 1519 1520 1522 1524 1526 1527 1528 1530 1531 1532 1533 1534 1535 1535 1536 1537 1538 1539 1539 1540 1541 1541 1542 1542 1543 1544 1545 1545 1546 1546 1547
1501 1497 1503 1510 1520 1529 1526 1534 1524 1511 1511 1506 1504 1505 1507 1510 1512 1514 1517 1519 1521 1523 1525 1527 1528 1529 1531 1532 1533 1534 1535 1536 1537 1537 1538 1539 1539 1540 1540 1541 1541 1542 1542 1543 1544 1544 1545 1546 1546
1496 1503 1511 1520 1528 1541 1530 1534 1529 1515 1506 1501 1499 1502 1504 1507 1510 1512 1515 1518 1520 1522 1524 1526 1527 1529 1530 1531 1532 1533 1534 1535 1536 1537 1537 1538 1538 1539 1539 1540 1541 1541 1542 1542 1543 1543 1544 1545 1545
1498 1516 1537 1541 1549 1546 1529 1530 1524 1501 1497 1495 1495 1497 1500 1504 1507 1510 1513 1515 1518 1520 1522 1524 1526 1527 1529 1530 1531 1532 1534 1535 1535 1536 1537 1537 1537 1538 1539 1539 1539 1540 1540 1541 1541 1542 1542 1543 1543
1501 1511 1536 1548 1552 1544 1531 1530 1511 1495 1493 1492 1493 1494 1497 1501 1504 1507 1510 1512 1515 1518 1520 1522 1524 1526 1528 1529 1530 1532 1533 1534 1534 1535 1535 1536 1536 1537 1537 1538 1538 1539 1539 1539 1539 1540 1540 1541 1541
1502 1511 1512 1532 1538 1543 1536 1523 1505 1493 1492 1492 1492 1494 1496 1498 1502 1505 1507 1510 1513 1515 1517 1520 1522 1524 1526 1527 1529 1530 1531 1532 1533 1534 1534 1534 1535 1535 1536 1536 1536 1537 1537 1538 1538 1538 1538 1539 1539
1494 1505 1520 1532 1546 1548 1535 1527 1518 1500 1496 1493 1493 1493 1494 1497 1500 1502 1505 1508 1510 1513 1515 1518 1520 1522 1524 1525 1527 1528 1529 1530 1531 1532 1533 1533 1533 1534 1534 1534 1534 1534 1535 1535 1535 1535 1536 1536 1537
1500 1508 1518 1530 1532 1545 1545 1530 1499 1496 1492 1492 1491 1492 1493 1495 1497 1500 1503 1506 1508 1511 1514 1516 1518 1520 1522 1523 1525 1526 1527 1528 1529 1530 1531 1531 1531 1532 1532 1532 1532 1532 1533 1533 1533 1533 1533 1533 1534
1492 1500 1511 1523 1532 1536 1539 1526 1490 1490 1489 1489 1490 1491 1492 1493 1496 1498 1502 1504 1507 1509 1512 1514 1516 1518 1520 1521 1523 1524 1525 1526 1526 1527 1528 1529 1529 1529 1530 1530 1530 1530 1530 1530 1530 1530 1530 1530 1531